Location: Oshawa
(43.9000°N, 78.8670°W)
Time: 20:44:19
(UTC-04:00)

Cosmos 1500 - Visible Passes

Search period start: 21 April 2018 00:00
Search period end: 01 May 2018 00:00
Orbit: 500 x 524 km, 82.5° (Epoch: 21 April)

Date Brightness Start Highest point End Pass type
(mag) Time Alt. Az. Time Alt. Az. Time Alt. Az.
22 Apr 6.3 01:40:06 10° NNW 01:40:18 11° NNW 01:40:18 11° NNW visible
23 Apr 6.3 01:23:50 10° NNW 01:24:18 13° NNW 01:24:18 13° NNW visible
24 Apr 6.2 01:07:36 10° NNW 01:08:17 15° NNW 01:08:17 15° NNW visible
25 Apr 6.0 00:51:24 10° N 00:52:17 17° N 00:52:17 17° N visible
26 Apr 5.9 00:35:14 10° N 00:36:18 18° N 00:36:18 18° N visible
27 Apr 5.7 00:19:05 10° N 00:20:19 19° N 00:20:19 19° N visible
28 Apr 5.6 00:02:58 10° N 00:04:20 20° NNE 00:04:20 20° NNE visible
28 Apr 5.4 23:46:53 10° N 23:48:22 20° NNE 23:48:22 20° NNE visible
29 Apr 5.4 23:30:50 10° NNE 23:32:24 20° NNE 23:32:24 20° NNE visible
30 Apr 6.1 01:06:50 10° NW 01:07:20 12° NW 01:07:20 12° NW visible
30 Apr 5.3 23:14:50 10° NNE 23:16:27 18° NE 23:16:27 18° NE visible
